Starlink 31991

operational
NORAD ID: 59963 Int'l Des: 2024-107 Owner: SPXS Country: US Constellation: starlink
LEOCIRCULAR

关于 Starlink 31991

正在加载描述...

实时位置

正在加载3D地球...

即将过境

高度历史

Altitude vs Time

uPlot chart will show altitude changes over time

两行轨道根数

1 59963U 24107U 26093.88121451 -.00001226 00000-0 -29305-4 0 9992
2 59963 53.1594 308.5013 0001080 78.5514 281.5608 15.30185647103655
Epoch: Apr 3, 2026 • Age: 10 hours

当前状态

高度 476.0 km
速度 7.63 km/s
星下点 1.90°N, 177.41°W
发射日期 Jun 5, 2024
运行时间 1.8 years
类型 internet

技术详情

分类 Payload
质量 730.00 kg
干质量 700.00 kg
总质量 730.00 kg
长度 0.30 m
直径 4.10 m
跨度 29.00 m
形状 Box + pan
制造商 SPXS
平台类型 Starlink V2M
阶段状态 In Orbit
所有者/国家 SPXS/US

大型星座

Loading constellations...